Location: Martz Observatory
(42.0083°N, 79.0667°W)
Time: 20:34:12
(UTC-04:00)

Cosmos 921 Rocket - Pass Details

Date: 26 May 2018
Orbit: 573 x 631 km, 75.8° (Epoch: 15 October)

Event Time Altitude Azimuth Distance (km) Brightness Sun altitude
Rises 03:03:46 0° 346° (NNW) 2,825 7.2 -21.9°
Reaches altitude 10° 03:06:00 10° 351° (N) 1,929 6.3 -21.7°
Maximum altitude 03:10:14 56° 70° (ENE) 714 3.5 -21.3°
Enters shadow 03:12:29 26° 139° (SE) 1,192 4.3 -21.1°
